Aerbrava en el facebook Aerbrava en el twitter Google+ Instagram Aerbrava en el youtube tumblr flikr pinterest
Aerbrava in English aerbrava en Español
Escola de Pilots
Telèfon 972234126 972 23 41 26
 
Aerbrava in English aerbrava en Español
Aerbrava - meteorologia

Informació meteorològica aeronàutica

 

En aquest apartat apareix la informació meteorològica aeronàutica que és utilitzada a les pràctiques dels alumnes de l’Escola de Pilots del nostre centre durant la seva formació, pel que pot no ser actual i s’hauria d’utilitzar pel seu propi compte i risc. AERBRAVA no es fa responsable del seu ús.

 

TEMPS ACTUAL

Satèl·lit Meteorològic

sat24.com

Servei Meteorològic de Catalunya

 

LEGE 261800Z 18009KT 150V220 9999 FEW030 23/16 Q1013
LEGE 261730Z 19008KT 160V220 9999 FEW030 24/16 Q1013
LEGE 261700Z 18009KT 150V210 9999 FEW030 24/16 Q1013
LEGE 261630Z 19008KT 9999 FEW030 24/15 Q1013
TAF LEGE 261700Z 2618/2718 18010KT 9999 SCT025 TX31/2713Z TN17/2706Z
BECMG 2618/2620 VRB04KT
BECMG 2710/2712 18010KT

Aviation Weather

 
Aerbrava en el facebook Aerbrava en el twitter Google+ Instagram Aerbrava en el youtube tumblr flikr pinterest

¡CSS Vàlid!